TITAN 3C TRANSTAGE DEB, 2799

Orbit data source: Space-Track

TITAN 3C TRANSTAGE DEB, 2799 is space debris in LEO originally from a launch on Fri, 15 Oct 1965 UTC launched from the Air Force Eastern Test Range (AFETR). Debris objects in space refer to the collection of defunct objects orbiting the Earth. Examples of debris include non-operational satellites, rocket bodies, and fragments generated from explosions, collisions, or faulty payload assembly.

Loading next visibility...
Identifier
2799, 1965-082KX
Orbit
LEO
Last TLE update
14 hours ago
Origin
Manufacturer
Unknown
Mission
Spacecraft
Bus & Motor
Unknown
Mass
Unknown
Launch date (UTC)
1965-10-15 (60 years ago)
Launch vehicle
Unknown
Launch site
Air Force Eastern Test Range (AFETR)
Object type
Payload
Rocket body
Debris
Shape & HBR
Unknown
Radar Cross Section
Small (<0.1 m²)

Expand to show TLE details & history

TLE from 14 hours ago
0 TITAN 3C TRANSTAGE DEB
1 02799U 65082KX  25182.60539816  .00000919  00000-0  13259-3 0  9996
2 02799  32.0563 296.4985 0034180 290.8858  87.3009 14.72961961104409
Epoch: 2025-07-01T14:31Z
TLE epoch observation values (Epoch: 2025-07-01T14:31:46.401Z)
Latitude
9.75795°
Longitude
174.50727°
Altitude
648.476 km
Speed
7.537 km/s
True Right ascension
20h 49m 23s
True Declination
9° 41' 59"
Sunlit
Object was in full shadow at epoch
Visualization orbit readout
Latitude
-31.90718°
Longitude
56.54537°
Altitude
639.234 km
Speed
7.55 km/s
Apparent Right ascension
09h 25m 38s
Apparent Declination
-58° 32' 39"
Sunlit
Object is in daylight
Visualization observer readout
Local Sidereal Time
16:20:18
Azimuth
221.4° SW
Elevation
-39.935°
Doppler factor
1
Orbital elements
Apogee altitude
679.292 km
Perigee altitude
631.212 km
Semi-major axis
7,033.389 km
Eccentricity
0.00342
Inclination
32.0563°
RAAN
296.4985°
Arg. of periapsis
290.8858°
True anomaly
Unknown
Mean anomaly
87.3009°
Eccentric anomaly
Unknown
Mean motion
3.67956 °/min
Orbital period
97.84 mins
BSTAR
0.00013259
Loading maneuver chart data...
Loading SW <> Apogee altitude chart data...

TITAN 3C TRANSTAGE DEB Visibility forecast

Observer location: undefined°, undefined°

Span
Click to sort rows by Start time (UTC) header in descending order
Start Az.
Max El. time (UTC)
Max El. Az.
Max El.
End time (UTC)
End Az.
7 mins2025-07-02 11:50:51.788Z214.424° SW2025-07-02 11:53:51.788Z173.514° S21.456°2025-07-02 11:57:51.788Z114.818° SE
6 mins2025-07-02 13:34:51.788Z227.602° WSW2025-07-02 13:36:51.788Z191.949° SSW27.636°2025-07-02 13:40:51.788Z122.243° SE
6 mins2025-07-02 15:17:51.788Z235.551° WSW2025-07-02 15:20:51.788Z185.545° SSW22.208°2025-07-02 15:23:51.788Z144.317° SSE
|